Flag for Canada Weather past 2 weeks in Surrey, British Columbia, Canada

Now
52 °F

Cool.


Feels Like: 49 °F
Forecast: 44 / 54 °F
Wind: 7 mph from Northeast

Location: P. Meadows Coastal Station


UV Index: 3 (Moderate)

Visibility: N/A


Pressure: 30.29 "Hg

Humidity: 70%

Dew point: 42 °F

Location of SurreyLocation

Historic Weather in Surrey

°F

Surrey temperature yesterday

Maximum temperature yesterday: 55 °F (at 1:00 PM)
Minimum temperature yesterday: 42 °F (at 4:00 AM)
Average temperature yesterday: 47 °F

Past Weeks' High & Low Weather Summary

 TemperatureHumidityPressure
High68 °F (Apr 13, 4:00 PM)100% (Apr 14, 6:00 AM)30.34 "Hg (Apr 14, 6:00 AM)
Low35 °F (Apr 14, 6:00 AM)24% (Apr 13, 12:00 PM)29.67 "Hg (Apr 17, 8:00 PM)
Average50 °F74%30.09 "Hg
* Reported Apr 5 11:00 AM — Apr 20 11:00 AM, Surrey, Weather by CustomWeather, © 2014

Note: Actual official high and low records may vary slightly from our data, if they occured in-between our weather recording intervals... More about our weather records

Advertising

Historic Weather Conditions — Data for Previous 24 hours

 ConditionsComfort  
Time TempWeatherWind HumidityBarometerVisibility
11:00 AM
Apr 20
51 °FCool.6 mph78%30.30 "HgN/A
10:00 AM50 °FCool.2 mph75%30.29 "HgN/A
9:00 AM48 °FCool.1 mph84%30.29 "HgN/A
8:00 AM47 °FCool.No wind89%30.28 "HgN/A
7:00 AM43 °FQuite cool.3 mph95%30.26 "HgN/A
6:00 AM45 °FQuite cool.1 mph91%30.25 "HgN/A
5:00 AM45 °FQuite cool.3 mph90%30.24 "HgN/A
4:00 AM45 °FCool.2 mph89%30.23 "HgN/A
3:00 AM45 °FCool.2 mph90%30.20 "HgN/A
2:00 AM47 °FCool.1 mph82%30.18 "HgN/A
1:00 AM48 °FCool.1 mph78%30.15 "HgN/A
12:00 AM49 °FCool.5 mph81%30.11 "HgN/A
11:00 PM
Apr 19
48 °FCool.3 mph82%30.07 "HgN/A
10:00 PM49 °FCool.3 mph77%30.03 "HgN/A
9:00 PM47 °FCool.3 mph88%30.00 "HgN/A
8:00 PM49 °FCool.3 mph85%29.96 "HgN/A
7:00 PM49 °FCool.5 mph87%29.93 "HgN/A
6:00 PM47 °FCool.6 mph94%29.92 "HgN/A
5:00 PM50 °FCool.5 mph82%29.90 "HgN/A
4:00 PM50 °FCool.6 mph84%29.88 "HgN/A
3:00 PM49 °FCool.6 mph84%29.88 "HgN/A
2:00 PM50 °FCool.6 mph80%29.85 "HgN/A
1:00 PM55 °FCool.6 mph53%29.80 "HgN/A
12:00 PM53 °FCool.6 mph59%29.77 "HgN/A
Weather by CustomWeather, © 2014

See weather overview